Back to catalog

SL-8 DEB

AliveLEO
NORAD 12793·DEBRIS·🇷🇺 Russia

Launched Aug 28, 1981 from Plesetsk Cosmodrome

Loading…

Next Passes (next 24 hours)

TLE

FreshSource: Space-Track

Epoch: Sep 14, 2026, 07:16 UTC

1 12793U 81084C   26257.30284557  .00002463  00000-0  34273-3 0  9996
2 12793  74.0259   9.5778 0001685 320.4753  39.6299 14.78394038381794

Track SL-8 DEB in real time with AllMySat

Download on the App Store